Powrót do katalogu

STARLINK-31485

AktywnyŁącznośćVLEO
NORAD 59308·PAYLOAD·🇺🇸 United States

Wystrzelony Mar 24, 2024 z Cape Canaveral Space Force Station

Loading…

Następne Przeloty (najbliższe 24 godziny)

TLE

ŚwieżeSource: CelesTrak SupGP

Epoka: Sep 15, 2026, 03:30 UTC

1 59308C 24056N   26258.14631944 -.00018821  00000+0 -68210-3 0  2586
2 59308  43.0009 241.0188 0001315 268.8616 182.4109 15.27568151    11

Śledź STARLINK-31485 w czasie rzeczywistym z AllMySat

Download on the App Store